Temperature
12 12 12 12 12 11 11 11 11 11 11 11 11 11 11 11 11 11 11 10 10 10 10 10 10 10 10 10 10 10 9 9 9 9 9 9 9 9 9 9 9 9 9
11 11 11 11 11 11 11 11 11 11 11 11 11 11 11 11 10 10 10 10 10 10 10 10 10 9 9 9 9 9 9 9 9 9 9 9 9 9 9 9 9 9 9
11 11 11 11 11 11 11 11 10 11 11 10 10 10 10 10 10 10 10 10 10 10 10 10 10 9 9 9 9 9 9 9 9 9 8 8 8 8 8 8 8 8 8
10 11 10 10 11 10 10 10 10 10 10 10 10 10 10 10 10 10 10 10 10 9 9 9 9 9 9 9 9 8 8 8 8 8 8 8 8 8 8 8 8 8 8
10 10 10 10 10 10 10 10 10 10 10 10 10 9 9 9 9 9 9 9 9 9 9 9 9 9 9 9 8 8 8 8 8 8 8 8 8 8 8 7 7 7 7
10 10 10 10 10 9 9 9 9 9 9 9 9 9 9 9 9 9 9 9 9 9 9 9 9 8 8 8 8 8 7 7 7 7 7 7 7 7 7 7 7 7 7
9 9 9 9 9 9 9 9 9 9 9 9 9 8 8 8 9 9 9 9 9 9 8 8 8 8 8 8 8 8 7 7 7 7 7 7 7 7 7 7 7 7 7
9 9 9 9 9 9 9 8 8 8 8 8 8 8 7 8 8 8 8 8 8 8 8 8 8 8 7 7 7 7 7 7 6 6 6 6 7 7 7 6 6 7 6
8 8 8 8 8 8 8 8 8 8 8 8 8 7 7 7 7 7 8 8 7 7 7 7 7 7 7 7 7 6 6 6 6 6 6 6 6 6 6 6 6 6 6
8 8 8 8 8 8 8 8 8 8 8 7 7 7 7 7 7 6 7 7 7 7 7 7 7 6 6 6 6 6 6 6 6 6 6 5 5 6 6 6 6 6 6
7 8 8 8 8 8 8 8 7 7 7 7 7 7 7 7 7 6 6 6 6 6 6 6 6 6 6 6 6 6 6 6 6 5 6 5 5 5 5 5 5 5 6
7 7 7 8 7 7 7 7 7 7 7 7 7 7 7 6 6 6 6 6 6 6 6 6 6 6 6 6 6 6 5 5 5 5 5 5 5 5 5 5 5 5 5
7 7 7 7 7 7 7 7 7 7 7 7 7 6 6 6 6 6 6 5 5 5 5 5 5 5 5 5 5 5 5 5 5 5 5 5 5 5 5 5 5 5 5
6 6 6 6 6 6 6 6 6 6 6 6 6 6 6 6 6 6 6 5 5 5 5 5 5 5 5 5 5 5 5 5 5 5 5 5 5 5 5 5 5 4 4
6 6 6 5 5 5 5 5 5 5 5 5 5 6 5 6 5 5 5 5 5 4 4 4 5 5 5 5 5 4 4 4 4 4 4 4 4 4 4 4 4 4 4
5 5 5 5 5 5 5 5 5 5 5 5 5 5 5 5 5 5 5 5 5 4 4 4 4 4 4 4 4 4 4 4 4 4 4 4 4 4 4 3 3 3 3
5 5 5 4 4 4 4 4 4 4 4 4 4 4 5 4 4 4 4 4 4 4 4 4 4 4 4 4 4 4 4 4 4 4 3 3 3 3 3 3 3 3 3
4 4 4 4 4 4 4 4 4 4 4 4 4 4 4 4 4 4 4 4 4 4 4 4 4 3 3 3 3 3 3 3 3 3 3 3 3 3 3 3 2 2 2
3 3 3 3 3 3 3 3 3 3 3 3 3 3 3 3 3 3 3 3 3 3 3 3 3 3 3 3 3 3 3 3 3 3 3 2 2 2 2 2 2 2 2
3 3 3 3 3 3 2 2 2 3 3 3 3 3 3 3 3 3 3 3 3 3 2 2 3 2 2 2 2 2 3 3 2 2 2 2 2 2 2 2 2 1 1
2 2 2 2 2 2 2 2 2 2 2 2 2 2 2 2 2 2 2 2 2 2 2 2 2 2 2 2 2 2 2 2 2 2 2 2 2 2 2 1 1 1 1
2 2 2 2 2 2 1 1 1 1 2 2 2 2 2 2 2 2 2 2 1 1 1 1 1 1 1 1 1 1 1 1 1 1 1 1 1 1 1 1 1 1 1
1 1 1 1 1 1 1 1 1 1 1 1 1 1 1 1 1 1 1 1 1 1 1 1 1 1 0 0 1 1 1 1 1 1 1 1 1 1 1 1 0 0 0
1 1 1 0 0 1 1 1 0 0 0 1 1 1 1 1 1 1 1 1 1 1 0 0 0 0 0 0 0 0 0 0 0 0 0 0 1 0 0 0 0 0 0
0 0 0 -0 -0 -0 -0 -0 -0 -0 -0 -0 0 0 0 0 0 0 0 0 0 0 0 -0 -0 -0 -0 -0 -0 -0 -0 -0 -0 -0 -0 -0 -0 -0 0 0 -0 -0 -0
-1 -1 -1 -1 -1 -1 -1 -1 -1 -1 -1 -0 -0 -0 -0 -0 -0 -0 -0 -0 -0 -0 -0 -0 -0 -0 -0 -0 -0 -1 -1 -1 -1 -1 -1 -1 -1 -1 -1 -0 -0 -0 -1
Wind_Speed
2 2 2 3 3 3 3 3 3 4 4 5 4 5 4 4 3 4 4 5 4 3 3 2 3 3 3 4 4 4 4 4 4 4 5 4 4 4 4 4 4 5 5
2 2 2 2 3 3 3 3 4 3 3 4 4 4 4 3 3 4 4 4 5 4 3 3 3 3 3 3 3 3 3 3 4 4 4 5 5 5 5 5 5 5 5
3 3 2 2 2 2 3 4 4 4 3 3 3 3 3 3 3 4 4 4 5 5 4 4 3 3 3 3 3 2 3 3 3 3 4 4 4 5 5 5 6 6 6
3 3 3 2 2 3 3 3 3 3 3 2 2 2 2 2 3 3 4 4 5 5 5 5 5 4 3 3 3 3 3 3 4 4 4 4 4 5 5 5 6 6 6
3 3 2 2 3 3 2 3 2 3 2 2 2 2 2 2 2 3 3 4 4 5 5 5 5 5 4 4 4 4 3 3 4 4 4 5 5 5 6 6 6 6 7
3 3 2 3 4 3 2 2 3 3 2 2 2 2 2 1 2 2 2 3 4 5 5 5 5 5 5 4 4 4 4 4 5 5 5 5 5 6 6 6 6 7 7
3 3 2 3 3 3 3 3 3 3 2 2 2 2 2 2 1 1 2 2 3 4 4 5 5 4 4 4 4 4 5 5 5 6 6 6 5 6 7 7 7 7 7
2 3 4 3 4 4 4 4 3 2 1 2 2 2 1 1 1 1 1 1 1 2 3 3 3 3 4 4 4 4 5 5 6 6 7 7 6 6 7 8 8 8 8
2 2 3 3 3 4 4 4 4 3 2 1 1 2 2 2 1 1 1 0 0 0 1 2 2 2 2 3 3 4 5 6 6 7 7 8 8 7 7 8 8 8 8
3 3 3 3 4 3 4 5 3 2 4 2 1 0 1 2 1 1 1 1 0 1 1 1 1 1 2 2 3 3 4 5 6 7 7 8 8 9 8 8 8 8 9
2 3 3 3 3 3 3 4 4 3 3 3 2 1 1 1 1 2 2 2 1 1 1 1 0 1 1 2 2 3 4 5 6 6 7 7 8 9 9 9 9 9 9
2 3 3 3 3 3 3 3 4 4 3 3 2 2 2 2 2 1 2 3 2 2 2 1 1 1 1 2 3 3 4 5 6 6 6 7 8 8 9 9 9 9 10
2 3 3 3 3 2 3 3 3 3 3 3 3 2 2 2 1 1 2 2 2 2 2 2 2 1 2 2 3 4 5 5 5 6 6 6 7 7 8 8 9 9 10
3 3 4 3 3 3 3 3 2 2 2 3 3 2 1 1 1 2 2 2 2 2 2 3 2 2 2 3 4 4 5 5 5 6 6 6 6 6 7 7 7 8 8
2 3 4 4 4 4 4 3 2 2 2 2 2 2 1 1 1 1 2 3 3 3 4 3 2 2 3 3 4 4 4 6 6 6 6 6 5 5 6 6 6 7 8
3 4 4 4 4 3 4 3 3 3 2 2 2 2 1 1 1 1 2 2 2 3 4 3 3 2 3 3 4 4 5 6 6 6 6 6 5 5 5 5 6 6 6
2 3 3 3 3 3 3 3 3 3 3 2 2 3 2 2 1 1 1 1 1 2 3 3 2 2 2 2 3 4 4 4 5 6 6 6 6 5 5 5 5 5 6
2 3 3 3 3 3 3 3 3 3 4 4 3 3 3 2 2 2 2 2 2 2 3 4 3 2 2 3 3 3 3 4 4 5 6 6 6 6 5 5 5 5 5
3 2 3 3 3 3 3 3 3 3 3 3 3 3 3 3 3 2 2 2 2 2 2 2 3 2 2 2 2 2 3 3 4 5 5 6 7 6 5 5 5 4 5
3 2 2 3 2 2 2 3 3 3 2 2 2 2 3 3 3 3 2 3 2 2 1 2 2 2 2 1 1 2 3 2 3 3 5 6 6 6 6 5 5 5 6
2 2 2 2 2 2 3 3 3 3 2 2 2 2 2 3 3 3 2 3 3 2 2 2 2 2 2 2 2 2 3 4 3 2 3 4 4 4 5 6 6 6 6
2 2 2 2 1 2 3 4 3 2 2 2 2 2 2 2 2 2 2 3 3 3 3 3 2 3 3 3 2 2 2 3 3 1 2 4 2 3 4 5 6 6 6
2 2 2 1 1 2 3 4 4 2 2 2 2 2 2 2 2 2 2 1 1 2 3 3 3 4 4 4 3 3 3 3 4 2 2 4 2 4 4 6 7 5 5
1 1 1 1 1 2 3 4 3 1 2 2 2 3 2 3 3 2 1 1 1 2 2 2 3 4 3 3 3 3 4 4 3 2 1 3 3 3 4 6 6 5 5
1 1 1 2 2 2 3 3 3 1 1 2 2 2 3 3 3 2 2 2 2 2 2 2 3 3 3 3 2 1 2 2 3 2 1 1 2 3 3 3 5 5 6
1 1 1 1 2 3 4 4 3 2 2 2 1 2 3 3 3 2 2 2 3 3 2 2 2 3 2 2 2 1 2 2 2 2 1 1 2 1 3 2 2 4 5
Wind_Direction
104 93 87 87 79 78 83 85 83 90 88 80 90 95 88 79 74 61 47 47 44 43 45 75 84 83 78 72 61 57 48 38 32 26 28 26 26 21 14 6 2 0 1
120 114 106 92 86 91 98 102 96 98 96 88 82 91 98 98 81 70 57 45 42 37 32 46 58 67 65 56 58 54 43 32 22 21 18 17 12 10 5 357 354 353 353
138 133 129 116 95 101 99 95 90 87 88 85 78 84 95 96 90 74 65 57 48 43 42 39 42 52 55 48 41 36 32 25 14 13 12 7 3 359 351 348 348 347 344
142 131 135 133 107 104 100 117 113 98 84 89 86 66 79 86 85 80 69 64 61 50 47 43 36 34 31 24 17 16 18 12 11 11 6 359 354 348 343 336 338 339 343
134 133 140 131 114 100 101 114 110 109 106 87 89 68 51 67 77 84 72 67 67 62 57 48 42 31 27 21 9 359 355 357 358 1 358 344 335 331 328 330 326 328 333
139 129 135 132 123 127 117 112 112 97 112 104 85 63 33 30 65 73 72 71 69 63 58 52 46 32 29 24 11 0 354 350 351 346 338 328 318 315 320 318 322 319 322
142 138 136 147 148 154 154 144 125 111 96 92 76 52 22 22 54 54 52 64 66 61 58 53 46 41 33 19 7 356 349 347 349 346 337 329 310 307 310 312 312 315 313
149 156 155 163 163 154 147 147 130 128 110 109 109 102 26 343 351 347 17 81 53 60 58 50 51 47 36 25 5 355 346 341 339 336 334 335 323 314 314 314 312 313 314
162 159 167 162 160 161 164 167 162 149 161 176 122 135 154 220 313 314 286 290 316 44 30 52 48 32 23 19 4 351 345 338 334 334 333 329 330 324 316 317 317 317 318
172 168 170 165 160 163 172 180 178 171 163 177 168 95 151 159 183 294 311 284 304 295 279 4 32 17 10 8 353 342 336 332 328 326 329 330 329 328 325 324 324 322 324
190 174 170 173 168 170 177 179 178 175 177 180 177 169 114 84 150 205 267 272 284 257 245 244 265 347 337 340 330 321 320 322 322 322 323 326 330 331 331 331 331 332 331
206 190 168 172 171 170 177 178 180 183 187 175 173 173 172 177 184 200 244 263 267 267 261 241 243 263 295 304 291 294 296 308 313 315 321 323 325 327 329 332 332 332 331
217 199 176 175 173 164 163 158 166 183 185 181 189 198 194 201 191 205 211 249 277 280 268 256 239 238 270 279 282 282 284 294 298 303 313 318 320 322 325 327 329 331 333
207 194 177 175 167 160 161 156 163 183 184 189 196 196 203 215 199 200 197 204 267 280 259 255 241 229 249 262 273 274 281 282 286 292 300 307 312 315 321 326 328 328 330
194 183 171 165 162 158 162 160 164 177 181 197 197 193 206 227 210 215 203 193 197 249 255 247 248 244 257 260 269 268 273 274 280 286 290 294 299 309 315 318 321 324 326
183 179 174 169 163 159 163 162 163 172 172 198 193 185 212 222 215 210 209 218 207 215 253 253 250 262 267 275 283 282 273 276 275 281 286 284 290 301 304 307 310 316 324
169 173 173 170 164 168 169 168 175 174 178 188 197 191 218 221 222 221 210 217 216 208 247 274 261 263 247 265 292 286 282 277 277 279 283 281 285 288 290 296 304 310 320
166 164 155 158 161 162 167 173 183 183 183 193 204 198 212 220 226 230 218 225 228 223 223 262 279 267 253 256 269 270 286 284 279 281 281 282 284 282 281 286 298 304 310
158 156 148 154 162 166 169 175 183 183 185 196 202 209 212 207 226 238 239 245 245 247 229 240 272 273 263 266 280 284 289 280 286 288 282 279 280 278 276 278 289 293 301
152 156 159 160 164 171 172 171 177 179 178 198 209 218 223 212 215 219 235 245 245 238 227 236 269 280 276 275 266 283 295 290 285 296 287 285 282 276 274 277 282 288 293
146 153 155 149 159 180 189 177 175 178 175 194 224 233 243 229 227 228 233 235 234 236 231 242 261 293 287 292 272 265 279 293 281 269 278 279 275 269 269 274 280 287 293
138 143 148 157 184 223 213 202 192 185 179 194 225 240 251 240 235 251 252 249 243 233 227 236 254 266 275 281 285 278 276 297 291 268 277 283 259 266 267 271 279 288 294
152 159 155 168 212 230 215 208 201 192 196 210 223 237 265 264 249 227 248 272 276 275 245 225 230 248 255 257 260 274 272 264 267 270 268 274 271 267 269 277 279 280 288
177 186 183 194 221 238 216 213 199 190 199 219 226 225 237 260 249 215 220 244 260 270 265 249 230 243 249 246 238 252 262 276 276 261 228 261 274 277 288 276 273 281 293
209 213 201 201 216 239 229 219 197 180 209 239 243 236 238 244 250 226 198 220 264 291 302 275 273 277 284 287 308 334 312 296 286 277 228 243 274 294 285 266 269 283 294
221 230 230 230 227 238 233 221 196 188 218 238 254 256 246 241 254 245 199 211 242 269 288 308 308 302 303 293 286 239 240 264 279 273 235 246 264 301 297 274 270 280 289
Height
1519 1520 1521 1522 1523 1524 1525 1526 1528 1528 1530 1531 1532 1533 1534 1535 1535 1536 1536 1537 1537 1537 1537 1537 1537 1537 1536 1536 1536 1536 1535 1535 1534 1534 1533 1533 1532 1531 1531 1530 1530 1529 1528
1517 1518 1519 1520 1521 1522 1524 1525 1526 1527 1528 1529 1530 1531 1532 1533 1534 1535 1535 1535 1536 1536 1536 1536 1536 1536 1535 1535 1535 1534 1534 1533 1533 1532 1532 1531 1530 1530 1529 1529 1528 1527 1527
1514 1516 1517 1518 1519 1520 1522 1523 1524 1525 1526 1527 1528 1530 1531 1531 1532 1533 1533 1534 1534 1534 1534 1534 1534 1534 1534 1534 1533 1533 1532 1532 1531 1530 1530 1529 1528 1528 1527 1527 1526 1525 1525
1512 1513 1515 1515 1517 1518 1519 1520 1522 1523 1524 1525 1526 1527 1529 1530 1530 1531 1532 1532 1532 1532 1532 1532 1532 1532 1532 1532 1532 1531 1531 1530 1529 1528 1528 1527 1526 1525 1525 1524 1524 1523 1522
1509 1510 1512 1513 1514 1516 1517 1518 1520 1521 1522 1523 1524 1525 1526 1527 1528 1529 1529 1530 1530 1530 1530 1530 1530 1530 1530 1530 1530 1529 1529 1528 1527 1526 1525 1524 1524 1523 1523 1522 1521 1520 1520
1506 1508 1509 1510 1511 1513 1515 1516 1517 1518 1520 1520 1521 1522 1523 1525 1525 1526 1527 1527 1528 1528 1528 1528 1528 1528 1528 1528 1527 1527 1526 1526 1525 1524 1523 1522 1521 1520 1520 1519 1518 1518 1517
1503 1505 1506 1507 1508 1510 1512 1513 1515 1516 1517 1518 1519 1520 1521 1522 1523 1523 1524 1525 1525 1526 1526 1526 1525 1525 1525 1525 1525 1525 1524 1523 1522 1521 1520 1518 1518 1518 1517 1517 1516 1515 1514
1500 1502 1503 1504 1505 1507 1509 1510 1511 1513 1514 1516 1517 1517 1518 1520 1520 1520 1521 1521 1522 1523 1523 1523 1523 1523 1523 1522 1522 1522 1521 1520 1520 1519 1517 1516 1516 1515 1514 1514 1513 1512 1511
1497 1499 1500 1501 1502 1504 1505 1507 1509 1510 1511 1513 1515 1516 1517 1515 1516 1517 1517 1518 1519 1519 1519 1519 1520 1520 1520 1520 1519 1519 1518 1518 1517 1516 1515 1514 1513 1513 1512 1511 1510 1509 1508
1494 1495 1497 1498 1499 1501 1503 1504 1506 1508 1509 1510 1512 1514 1515 1514 1514 1513 1514 1515 1515 1516 1516 1516 1517 1517 1517 1516 1516 1515 1515 1515 1514 1513 1512 1511 1510 1510 1509 1508 1507 1506 1505
1491 1492 1494 1495 1496 1498 1500 1501 1503 1505 1506 1508 1509 1510 1511 1512 1512 1511 1510 1510 1511 1512 1512 1513 1513 1513 1513 1513 1513 1512 1512 1512 1511 1510 1509 1509 1508 1507 1506 1505 1504 1503 1502
1487 1489 1490 1492 1493 1495 1497 1498 1500 1502 1503 1504 1506 1507 1507 1508 1508 1509 1508 1507 1507 1508 1509 1509 1509 1509 1509 1509 1509 1509 1509 1508 1508 1507 1506 1505 1505 1504 1503 1502 1501 1499 1498
1483 1485 1486 1489 1490 1492 1494 1495 1497 1498 1499 1501 1502 1503 1504 1505 1505 1506 1506 1504 1504 1504 1504 1505 1505 1506 1505 1505 1505 1505 1505 1505 1504 1503 1503 1502 1501 1500 1499 1498 1497 1496 1495
1481 1481 1483 1485 1487 1488 1490 1492 1493 1495 1496 1497 1498 1499 1500 1501 1502 1503 1503 1502 1501 1500 1500 1501 1501 1502 1502 1501 1501 1502 1501 1501 1500 1500 1499 1498 1497 1497 1496 1495 1494 1492 1491
1478 1479 1480 1482 1483 1485 1487 1488 1489 1491 1492 1493 1494 1495 1496 1497 1498 1499 1499 1499 1500 1497 1496 1496 1497 1497 1498 1498 1497 1497 1497 1497 1497 1496 1495 1495 1494 1493 1492 1491 1490 1489 1488
1474 1475 1476 1478 1480 1481 1483 1484 1485 1487 1488 1489 1490 1491 1492 1493 1494 1494 1495 1495 1495 1495 1493 1492 1492 1493 1493 1494 1494 1493 1493 1493 1492 1492 1491 1491 1490 1489 1488 1487 1486 1485 1484
1471 1472 1473 1475 1476 1478 1479 1481 1482 1483 1484 1485 1486 1487 1488 1489 1490 1490 1491 1491 1491 1491 1490 1489 1489 1489 1490 1490 1490 1490 1489 1489 1488 1488 1487 1487 1486 1485 1484 1483 1482 1481 1480
1468 1469 1470 1471 1472 1474 1476 1477 1478 1479 1480 1481 1482 1483 1484 1485 1485 1486 1486 1486 1486 1487 1486 1485 1485 1485 1485 1486 1486 1485 1485 1484 1484 1483 1483 1482 1482 1481 1480 1479 1479 1478 1476
1465 1466 1467 1468 1469 1470 1472 1473 1474 1475 1476 1477 1478 1479 1480 1480 1480 1481 1481 1482 1482 1482 1482 1481 1481 1481 1481 1481 1481 1481 1481 1480 1480 1479 1479 1478 1477 1477 1476 1475 1474 1474 1473
1461 1462 1463 1465 1466 1467 1468 1469 1471 1471 1472 1473 1474 1475 1476 1476 1476 1477 1477 1478 1478 1478 1478 1478 1477 1477 1477 1477 1477 1477 1476 1476 1475 1475 1475 1474 1473 1472 1472 1471 1470 1469 1469
1458 1459 1460 1461 1462 1463 1464 1466 1467 1468 1468 1469 1470 1471 1472 1472 1473 1473 1473 1474 1474 1474 1473 1473 1473 1473 1473 1473 1473 1472 1472 1471 1471 1471 1470 1470 1469 1468 1467 1466 1466 1466 1465
1454 1455 1456 1457 1458 1459 1461 1462 1463 1464 1464 1466 1467 1467 1468 1468 1469 1470 1470 1471 1471 1470 1470 1469 1469 1469 1469 1469 1469 1469 1468 1467 1466 1467 1466 1465 1465 1464 1463 1462 1462 1461 1460
1451 1452 1453 1454 1454 1456 1457 1458 1459 1460 1461 1462 1463 1463 1463 1464 1465 1465 1466 1467 1467 1467 1467 1467 1466 1466 1466 1466 1466 1465 1464 1463 1463 1462 1462 1461 1461 1460 1459 1458 1458 1457 1457
1448 1448 1449 1450 1451 1452 1454 1455 1456 1457 1457 1458 1459 1459 1459 1460 1461 1461 1461 1462 1462 1463 1463 1463 1464 1464 1464 1463 1463 1462 1461 1460 1459 1459 1458 1457 1456 1456 1455 1455 1454 1454 1453
1445 1445 1446 1447 1448 1449 1450 1451 1452 1453 1454 1454 1455 1456 1456 1456 1457 1457 1458 1458 1458 1459 1460 1460 1460 1460 1460 1460 1459 1458 1457 1456 1454 1454 1454 1453 1452 1451 1451 1451 1451 1450 1450
1441 1442 1443 1444 1445 1445 1447 1448 1449 1449 1450 1450 1451 1452 1453 1453 1454 1454 1454 1454 1454 1455 1455 1456 1456 1456 1456 1456 1455 1455 1454 1452 1451 1450 1450 1450 1449 1448 1447 1446 1447 1446 1445